Regional Weather Roundup
Issued by NWS Sioux Falls, SD

Home | Current Version | Previous Version | Graphics & Text | Print | Product List | Glossary Off
Versions: 1 2 3 4 5 6 7 8 9 10 11 12 13 14 15 16 17 18 19 20 21 22 23 24 25 26 27 28 29 30 31 32 33 34 35 36 37 38 39 40 41 42 43 44 45 46 47 48 49 50

000
ASUS43 KFSD 280710
RWRFSD

WEATHER ROUNDUP FOR SE SOUTH DAKOTA/SW MINNESOTA/NW IOWA
NATIONAL WEATHER SERVICE SIOUX FALLS SD
100 AM CST SUN DEC 28 2014

NOTE: "FAIR" INDICATES FEW OR NO CLOUDS BELOW 12,000 FEET WITH NO
SIGNIFICANT WEATHER AND OR OBSTRUCTIONS TO VISIBILITY.


SDZ038>040-050-052>070-280800-
SOUTHEAST SOUTH DAKOTA

CITY           SKY/WX    TMP DP  RH WIND       PRES   REMARKS
CHAMBERLAIN    CLOUDY    15  11  82 W8        30.07F WCI   5
HURON          CLEAR      6   3  87 CALM      30.07F
MADISON        FAIR      10  10 100 SW9       30.04F WCI  -2
MITCHELL       CLEAR      5   2  87 S7        30.08F WCI  -7
SIOUX FALLS    PTCLDY     1   1 100 CALM      30.08F
WINNER         FAIR      18   8  65 SW8       30.05F WCI   8
YANKTON          N/A      9   9 100 CALM      30.12F VSB 1/2
$$

MNZ071-072-080-081-089-090-097-098-280800-
SOUTHWEST MINNESOTA

CITY           SKY/WX    TMP DP  RH WIND       PRES   REMARKS
FAIRMONT       CLEAR     10   5  79 SW6       30.10F WCI   1
JACKSON        CLEAR     12   9  85 SW10      30.08F WCI  -1
LUVERNE        PTCLDY     1  -2  85 CALM      30.10F
MARSHALL       CLEAR     12   7  79 SW10      30.05F WCI  -1
MONTEVIDEO     CLEAR     16  12  86 W7        30.07F WCI   6
PIPESTONE      CLEAR      3   0  85 CALM      30.05F FOG
REDWOOD FALLS  CLEAR     10   5  80 SW10      30.08F WCI  -4
TRACY          CLEAR      9   7  90 CALM      30.07F
WINDOM         CLEAR      9   7  92 CALM      30.09S
WORTHINGTON    CLEAR     12 -29  14 SW14      30.07F WCI  -3
$$

IAZ001>003-012>014-020>022-031-032-NEZ013-014-SDZ071-280800-
NORTHWEST IOWA

CITY           SKY/WX    TMP DP  RH WIND       PRES   REMARKS
CHEROKEE       PTCLDY     6   5  95 CALM      30.14F
DENISON        PTCLDY    12  12 100 CALM      30.15F
ESTHERVILLE    CLEAR     10   7  87 SW7       30.10F WCI  -1
LE MARS        FAIR       5   3  92 CALM      30.14F
ORANGE CITY    PTCLDY    10   9  92 S3        30.10F
SHELDON        PTCLDY     7   5  92 S5        30.10F WCI  -2
SIOUX CITY     PTCLDY     7   4  87 E7        30.15F WCI  -5
SPENCER        CLEAR      7   3  84 SW7       30.11F WCI  -5
STORM LAKE     PTCLDY     9   7  92 SW9       30.12F WCI  -5
$$

ABBREVIATIONS USED IN REMARKS
   TC - TEMPERATURE IN CELSIUS
  WCI - WIND CHILL INDEX
   HX - HEAT INDEX
  VSB - VISIBILITY




USA.gov is the U.S. government's official web portal to all federal, state and local government web resources and services.